Mosby, MO

3:50 PM CST on December 06, 2019 (GMT -0600)
Clay County Regional

Weather History for KGPH - October, 2019

Change the Weather History Date:

Wednesday, October 2, 2019

  Actual Average (KMKC) Record (KMKC)
Temperature  
Mean Temperature 72 °F -  
Max Temperature 84 °F 71 °F 93 °F (2006)
Min Temperature 59 °F 50 °F 36 °F (2004)
Cooling Degree Days 7    
Growing Degree Days 22 (Base 50)    
Moisture  
Dew Point 47 °F    
Average Humidity 56    
Maximum Humidity 100    
Minimum Humidity 4    
Precipitation  
Precipitation 0.00 in - - ()
Sea Level Pressure  
Sea Level Pressure 29.91 in    
Wind  
Wind Speed 3 mph ()    
Max Wind Speed 13 mph    
Max Gust Speed 18 mph    
Visibility 9.6 miles    
Events Rain , Thunderstorm    
Averages and records for this station are not official NWS values.
T = Trace of Precipitation, MM = Missing Value Source: Averaged Metar Reports

Daily Weather History Graph

Daily Weather History Graph

Search for Another Location

Airport or City:

Astronomy

Oct. 02, 2019 Rise Set
Actual Time 7:14 AM CDT 6:58 PM CDT
Civil Twilight 6:47 AM CDT 7:25 PM CDT
Nautical Twilight 6:16 AM CDT 7:56 PM CDT
Astronomical Twilight 5:44 AM CDT 8:27 PM CDT
Moon 11:39 AM CDT (10/2) 9:54 PM CDT (10/2)
Length of Visible Light 12h 37m
Length of Day
11h 44m
Waxing Crescent, 20% of the Moon is Illuminated
Oct 2
Waxing Crescent
Oct 5
First Quarter
Oct 13
Full
Oct 21
Last Quarter
Oct 27
New

Hourly Weather History & Observations

Time (CDT) Temp. Heat Index Dew Point Humidity Pressure Visibility Wind Dir Wind Speed Gust Speed Precip Events Conditions
12:15 AM 78.8 °F - 64.4 °F 61% 29.87 in 10.0 mi SSW 8.1 mph - N/A   Overcast
12:35 AM 78.8 °F - 64.4 °F 61% 29.87 in 10.0 mi SW 3.5 mph - N/A   Overcast
12:55 AM 78.8 °F - 64.4 °F 61% 29.88 in 10.0 mi SW 9.2 mph - N/A   Overcast
1:15 AM 78.8 °F - 64.4 °F 61% 29.88 in 10.0 mi WSW 3.5 mph - N/A   Overcast
1:35 AM 78.8 °F - 66.2 °F 65% 29.88 in 10.0 mi West 3.5 mph - N/A   Overcast
1:55 AM 77.0 °F - 66.2 °F 69% 29.89 in 10.0 mi WNW 5.8 mph - N/A   Overcast
2:15 AM 75.2 °F - 66.2 °F 73% 29.89 in 10.0 mi West 6.9 mph - N/A   Overcast
2:35 AM 75.2 °F - 66.2 °F 73% 29.90 in 10.0 mi Calm Calm - N/A   Overcast
2:55 AM 75.2 °F - 66.2 °F 73% 29.91 in 10.0 mi Calm Calm - N/A   Overcast
3:55 AM 73.4 °F - 68.0 °F 83% 29.91 in 10.0 mi Calm Calm - N/A   Light Drizzle
4:15 AM 71.6 °F - 68.0 °F 88% 29.91 in 10.0 mi Calm Calm - N/A   Overcast
4:35 AM 71.6 °F - 69.8 °F 94% 29.92 in 10.0 mi Calm Calm - N/A Rain Light Rain
4:55 AM 71.6 °F - 69.8 °F 94% 29.92 in 10.0 mi Calm Calm - N/A   Overcast
5:15 AM 71.6 °F - 69.8 °F 94% 29.92 in 10.0 mi Calm Calm - N/A   Overcast
5:35 AM 71.6 °F - 69.8 °F 94% 29.92 in 10.0 mi Calm Calm - N/A   Overcast
5:55 AM 71.6 °F - 69.8 °F 94% 29.93 in 7.0 mi Calm Calm - N/A Rain Rain
6:15 AM 71.6 °F - 69.8 °F 94% 29.93 in 10.0 mi Calm Calm - N/A   Overcast
6:35 AM 71.6 °F - 69.8 °F 94% 29.93 in 10.0 mi Calm Calm - N/A   Overcast
6:55 AM 71.6 °F - 69.8 °F 94% 29.93 in 10.0 mi Calm Calm - N/A   Overcast
7:15 AM 71.6 °F - 69.8 °F 94% 29.93 in 10.0 mi Calm Calm - N/A   Overcast
7:35 AM 71.6 °F - 69.8 °F 94% 29.93 in 10.0 mi Calm Calm - N/A   Overcast
8:35 AM 71.6 °F - 69.8 °F 94% 29.93 in 10.0 mi Calm Calm - N/A   Mostly Cloudy
8:55 AM 71.6 °F - 69.8 °F 94% 29.94 in 10.0 mi Calm Calm - N/A   Overcast
9:15 AM 71.6 °F - 69.8 °F 94% 29.93 in 10.0 mi Calm Calm - N/A   Overcast
9:35 AM 71.6 °F - 69.8 °F 94% 29.94 in 10.0 mi Calm Calm - N/A   Overcast
9:55 AM 69.8 °F - 68.0 °F 94% 29.93 in 10.0 mi Calm Calm - N/A Rain Light Rain
10:15 AM 69.8 °F - 69.8 °F 100% 29.93 in 10.0 mi Calm Calm - N/A Rain Light Rain
10:35 AM 71.6 °F - 69.8 °F 94% 29.93 in 10.0 mi Calm Calm - N/A   Mostly Cloudy
10:55 AM 73.4 °F - 71.6 °F 94% 29.92 in 10.0 mi Calm Calm - N/A   Overcast
11:15 AM 77.0 °F - 71.6 °F 83% 29.91 in 10.0 mi Calm Calm - N/A   Scattered Clouds
12:15 PM 78.8 °F - 69.8 °F 74% 29.91 in 10.0 mi Calm Calm - N/A   Mostly Cloudy
12:35 PM 78.8 °F - 69.8 °F 74% 29.92 in 10.0 mi Calm Calm - N/A   Mostly Cloudy
12:55 PM 80.6 °F 83.2 °F 68.0 °F 65% 29.91 in 10.0 mi SSW 11.5 mph 17.3 mph N/A   Mostly Cloudy
1:35 PM 80.6 °F 83.2 °F 68.0 °F 65% 29.90 in 10.0 mi Calm Calm - N/A   Scattered Clouds
1:55 PM 82.4 °F 86.3 °F 69.8 °F 66% 29.90 in 10.0 mi Calm Calm - N/A   Clear
2:15 PM 82.4 °F - 21.2 °F 10% 29.89 in 10.0 mi SSW 8.1 mph - N/A   Scattered Clouds
2:35 PM 82.4 °F - 8.6 °F 6% 29.87 in 10.0 mi SSW 4.6 mph - N/A   Clear
3:15 PM 82.4 °F - -0.4 °F 4% 29.87 in 10.0 mi SSW 8.1 mph - N/A   Scattered Clouds
3:55 PM 84.2 °F - -2.2 °F 4% 29.87 in 10.0 mi WSW 6.9 mph - N/A   Unknown
4:15 PM 82.4 °F - 1.4 °F 4% 29.87 in 10.0 mi SSW 4.6 mph - N/A   Overcast
5:15 PM 84.2 °F - 1.4 °F 4% 29.85 in 10.0 mi Calm Calm - N/A   Mostly Cloudy
5:55 PM 84.2 °F - 1.4 °F 4% 29.83 in 10.0 mi Calm Calm - N/A   Mostly Cloudy
6:15 PM 82.4 °F - 6.8 °F 6% 29.82 in 10.0 mi NNW 11.5 mph - N/A Rain Rain
6:35 PM 75.2 °F - 23.0 °F 14% 29.85 in 2.0 mi NNW 4.6 mph - N/A Rain , Thunderstorm Light Thunderstorms and Rain
6:55 PM 73.4 °F - 28.4 °F 19% 29.86 in 10.0 mi Calm Calm - N/A Thunderstorm Overcast
7:35 PM 71.6 °F - 21.2 °F 15% 29.87 in 7.0 mi NNW 10.4 mph - N/A Rain Rain
7:55 PM 71.6 °F - 19.4 °F 14% 29.90 in 10.0 mi NNW 9.2 mph - N/A Thunderstorm Overcast
8:15 PM 69.8 °F - 17.6 °F 14% 29.91 in 10.0 mi NNW 11.5 mph - N/A Thunderstorm Thunderstorm
8:35 PM 69.8 °F - 15.8 °F 13% 29.90 in 3.0 mi Calm Calm - N/A Rain , Thunderstorm Heavy Thunderstorms and Rain
8:55 PM 69.8 °F - 19.4 °F 15% 29.92 in 10.0 mi Calm Calm - N/A Rain , Thunderstorm Light Thunderstorms and Rain
9:55 PM 64.4 °F - 14.0 °F 14% 29.96 in 10.0 mi NW 10.4 mph - N/A   Light Drizzle
10:15 PM 64.4 °F - 12.2 °F 13% 29.99 in 10.0 mi WNW 10.4 mph - N/A Rain Rain
10:35 PM 62.6 °F - 10.4 °F 13% 29.99 in 10.0 mi WNW 10.4 mph - N/A   Light Drizzle
11:15 PM 60.8 °F - 6.8 °F 12% 30.02 in 10.0 mi Calm Calm - N/A   Overcast
11:35 PM 60.8 °F - 5.0 °F 11% 30.02 in 10.0 mi NW 12.7 mph 18.4 mph N/A   Overcast
11:55 PM 59.0 °F - 5.0 °F 12% 30.03 in 10.0 mi NNW 11.5 mph 18.4 mph N/A   Overcast